STARLINK-1068 (44772 NORAD) Tracking and Keplerian Element Data

This shows tracking and keplerian element data for the satellite.

Feedback or suggestion? Click here.




ElementValue
Catalog44772
NameSTARLINK-1068
Epoch Orbit1064
Epoch Day18.25002315
Epoch Year2020
RAAN195.7993
Inclination53.0073
Eccentricity0.0001405
Argument of Perigee82.2184
Mean Anonmoly200.5831
Mean Motion15.42583528
Decay Rate-0.00104804
L11 44772U 19074BM 20018.25002315 -.00104804 00000-0 -23972-2 0 9998
L22 44772 53.0073 195.7993 0001405 82.2184 200.5831 15.42583528 10645

Live tracking and technical data element details for STARLINK-1068 (NORAD 44772). STARLINK-1068 can be tracked NOW for your location showing map with azimuth and elevation plus other details from your city location.

Track the satellite on the map from your city or location and see movement details for azimuth, elevation, latitude, longitude, range, height, and movement on the map or in text.







IsCatalogInMostPopularTable: catalog: 44772, numindb: 46
Update: records affected: 1



GetName: 44772 STARLINK-1068

Hit Count: updated at: Mon, 20 Jan 2020 03:16:53 GMT